Regional Weather Roundup
Issued by NWS Charleston, WV

Home | Current Version | Previous Version | Graphics & Text | Print | Product List | Glossary Off
Versions: 1 2 3 4 5 6 7 8 9 10 11 12 13 14 15 16 17 18 19 20 21 22 23 24 25 26 27

000
ASUS41 KRLX 161510
RWRRLX
West Virginia Regional Weather Roundup
National Weather Service Charleston WV
1000 AM EST SAT DEC 16 2017

Note: "fair" indicates few or no clouds below 12,000 feet with no
significant weather and/or obstructions to visibility.

WVZ003-161600-
Northern Panhandle of West Virginia

CITY           SKY/WX    TMP DP  RH WIND       PRES   REMARKS
WHEELING       CLOUDY    32  22  66 SW9G17    30.04R
$$

WVZ009-161600-
Northwest West Virginia

CITY           SKY/WX    TMP DP  RH WIND       PRES   REMARKS
PARKERSBURG    CLOUDY    36  23  59 SW10G20   30.13R
$$

WVZ006-161600-
Western West Virginia

CITY           SKY/WX    TMP DP  RH WIND       PRES   REMARKS
HUNTINGTON     SUNNY     38  22  52 SW13G20   30.16R
$$

WVZ015-161600-
West Central West Virginia

CITY           SKY/WX    TMP DP  RH WIND       PRES   REMARKS
CHARLESTON     MOSUNNY   39  22  50 SW9G18    30.16R
$$

WVZ022-031-161600-
North Central West Virginia

CITY           SKY/WX    TMP DP  RH WIND       PRES   REMARKS
CLARKSBURG     CLOUDY    35  23  61 SW12      30.11R
MORGANTOWN     CLOUDY    33  21  61 S8        30.08S
$$

WVZ025-035-042-045-161600-
Southern West Virginia

CITY           SKY/WX    TMP DP  RH WIND       PRES   REMARKS
BECKLEY        SUNNY     30  20  66 SW7       30.13R
LOGAN            N/A     37  23  56 VRB7      30.16R
BLUEFIELD      SUNNY     29  20  69 SW12      30.14R
LEWISBURG      CLOUDY    31  22  66 W6        30.14R
$$

WVZ047-161600-
Northern Mountains of West Virginia

CITY           SKY/WX    TMP DP  RH WIND       PRES   REMARKS
ELKINS         PTSUNNY   32  20  61 SW5       30.09R
$$

WVZ052-161600-
Eastern Panhandle of West Virginia

CITY           SKY/WX    TMP DP  RH WIND       PRES   REMARKS
MARTINSBURG    SUNNY     38  19  46 SW9       30.09S
PETERSBURG     SUNNY     41  20  43 W5G10     30.07F
$$




USA.gov is the U.S. government's official web portal to all federal, state and local government web resources and services.